Location: Shenandoah County Park
(38.9356°N, 78.4524°W)
Time: 09:51:42
(UTC-04:00)

VELOX 1 - Visible Passes

Search period start: 21 March 2023 00:00
Search period end: 31 March 2023 00:00
Orbit: 618 x 633 km, 98.4° (Epoch: 21 March)

Date Brightness Start Highest point End Pass type
(mag) Time Alt. Az. Time Alt. Az. Time Alt. Az.
21 Mar ? 05:49:14 10° ESE 05:52:32 21° ENE 05:55:50 10° NNE visible
21 Mar ? 20:50:39 10° NNW 20:53:18 16° WNW 20:55:56 10° WSW visible
22 Mar ? 06:07:32 10° SE 06:11:27 33° ENE 06:15:22 10° N visible
22 Mar ? 21:11:39 10° NW 21:12:07 10° WNW 21:12:34 10° WNW visible
23 Mar ? 06:26:08 10° SSE 06:30:24 53° ENE 06:34:39 10° N visible
23 Mar ? 19:51:17 10° N 19:55:35 68° WNW 19:59:52 10° SSW visible
24 Mar ? 20:10:29 10° N 20:14:33 41° WNW 20:18:35 10° SW visible
25 Mar ? 05:30:43 10° E 05:32:44 13° ENE 05:34:45 10° NE visible
25 Mar ? 20:29:50 10° NNW 20:33:26 26° WNW 20:37:01 10° SW visible
26 Mar ? 05:48:21 10° ESE 05:51:32 20° ENE 05:54:43 10° NNE visible
26 Mar ? 20:49:29 10° NNW 20:52:15 17° WNW 20:55:01 10° WSW visible
27 Mar ? 06:06:32 10° SE 06:10:22 31° ENE 06:14:13 10° N visible
27 Mar ? 21:09:57 10° NW 21:11:00 11° WNW 21:12:03 10° WNW visible
28 Mar ? 06:25:03 10° SSE 06:29:15 50° ENE 06:33:28 10° N visible
29 Mar ? 20:09:11 10° N 20:13:17 44° WNW 20:17:22 10° SW visible
30 Mar ? 05:29:43 10° E 05:31:29 12° ENE 05:33:14 10° NE visible
30 Mar ? 20:28:27 10° N 20:32:07 28° WNW 20:35:46 10° SW visible
